Content
SEND FEEDBACK

Daily
Averages
Monthly
Summary
United States of America

ENDICOTT, NEBRASKA


Home > North America > United States > Nebraska
Elevation: 1300 feet     Latitude: 40 07N     Longitude: 097 10W

WEATHER
 
SELECT A DAY
Number of Records: 256,926;   Date Range: 2/25/04 - 7/7/14
 
SHARE

PRINT THIS DATA

[ ← Previous Day ]
WEATHER ALMANAC - FEBRUARY 5, 2013
[ Next Day → ]
[ °C ]   °F
Weather ElementAverageHighLow
Temperature38.5 °F54 °F (3:15 pm)27.1 °F (1:55 am)
Dewpoint27.8 °F32.7 °F (10:35 am)24.1 °F (12:55 am)
Humidity68.9 %90 % (4:15 am)38 % (3:55 pm)
Barometer29.97 in30.05 in (8:55 pm)29.87 in (1:35 am)
Wind Speed5.4 mph16.1 mph (11:15 am)
Wind Gust20.7 mph (11:15 am)
Weather ElementAverage
Visibility9.8 mi
Wind DirectionSSW (201.6 °)

Weather ElementTotal
Precipitation---
Heating Degree Days24.5 (Base 65)
Averaged from 68 records on February 5, 2013
WEATHER CONDITIONS BREAKOUT
WIND DIRECTION BREAKOUT
WEATHER BY HOUR - FEBRUARY 5, 2013
[ °C ]   °F
Local TimeTemperatureDewpointHumidityBarometerVisibilityWind DirectionWind SpeedGust SpeedPrecipitationEventsConditions
12:35 AM28.0 °F24.8 °F88 %29.88 in10.0 miSW (220°)3.5 mphClear
12:55 AM27.5 °F24.1 °F87 %29.88 in7.0 miSW (220°)3.5 mphClear
1:15 AM27.9 °F24.6 °F88 %29.88 in10.0 miSW (230°)3.5 mphClear
1:35 AM27.5 °F24.4 °F88 %29.87 in7.0 miCalmClear
1:55 AM27.1 °F24.3 °F89 %29.88 in7.0 miWest (260°)3.5 mphClear
2:15 AM27.3 °F24.3 °F88 %29.88 in7.0 miCalmClear
2:35 AM28.4 °F25.5 °F89 %29.87 in10.0 miSSW (210°)4.6 mphClear
2:55 AM29.3 °F25.7 °F86 %29.87 in10.0 miWSW (250°)4.6 mphClear
3:15 AM29.7 °F26.1 °F86 %29.88 in10.0 miWNW (290°)4.6 mphClear
3:35 AM28.4 °F25.5 °F89 %29.88 in10.0 miCalmClear
3:55 AM27.9 °F24.8 °F88 %29.88 in10.0 miNW (310°)3.5 mphClear
4:15 AM27.5 °F24.8 °F90 %29.88 in10.0 miWNW (300°)3.5 mphClear
4:35 AM27.9 °F25.0 °F89 %29.87 in10.0 miWSW (240°)4.6 mphClear
4:55 AM28.2 °F25.3 °F89 %29.88 in10.0 miWest (260°)3.5 mphClear
5:15 AM28.0 °F25.2 °F89 %29.88 in10.0 miWest (280°)4.6 mphClear
5:35 AM28.2 °F25.3 °F89 %29.88 in10.0 miWest (260°)5.8 mphClear
5:55 AM28.4 °F25.3 °F88 %29.88 in10.0 miWSW (250°)3.5 mphScattered Clouds
6:15 AM28.2 °F25.2 °F88 %29.89 in10.0 miWest (270°)3.5 mphClear
6:35 AM29.1 °F25.7 °F87 %29.89 in10.0 miWest (270°)6.9 mphClear
6:55 AM28.6 °F25.0 °F86 %29.90 in10.0 miWNW (290°)4.6 mphClear
7:15 AM27.9 °F24.8 °F88 %29.91 in10.0 miWest (280°)5.8 mphClear
7:35 AM29.1 °F25.2 °F85 %29.91 in10.0 miWest (280°)4.6 mphClear
8:15 AM30.4 °F25.7 °F83 %29.93 in10.0 miWest (270°)4.6 mphClear
8:35 AM31.8 °F26.8 °F82 %29.94 in10.0 miWest (270°)5.8 mphClear
8:55 AM32.9 °F27.7 °F81 %29.95 in10.0 miWest (270°)6.9 mphClear
9:15 AM34.9 °F28.9 °F79 %29.96 in10.0 miWest (280°)4.6 mphClear
9:35 AM37.0 °F30.9 °F79 %29.97 in10.0 miWest (280°)6.9 mphClear
9:55 AM40.6 °F32.0 °F71 %29.98 in10.0 miWNW (290°)8.1 mphClear
10:15 AM42.8 °F32.5 °F67 %30.00 in10.0 miNNW (330°)10.4 mphClear
10:35 AM45.3 °F32.7 °F61 %30.00 in10.0 miNNW (330°)8.1 mphClear
10:55 AM48.0 °F32.5 °F55 %30.01 in10.0 miNNW (340°)11.5 mphClear
11:15 AM50.0 °F32.2 °F50 %30.02 in10.0 miNNW (340°)16.1 mph20.7 mphClear
11:35 AM50.9 °F31.6 °F48 %30.02 in10.0 miNNW (340°)13.8 mph18.4 mphClear
11:55 AM51.3 °F31.3 °F46 %30.02 in10.0 miNorth (350°)16.1 mphClear
12:15 PM51.4 °F30.2 °F44 %30.02 in10.0 miNNW (340°)12.7 mph18.4 mphClear
12:35 PM51.8 °F30.4 °F44 %30.02 in10.0 miNNW (340°)15.0 mph18.4 mphClear
12:55 PM52.2 °F30.2 °F43 %30.02 in10.0 miNorth (350°)12.7 mph16.1 mphClear
1:15 PM52.2 °F30.4 °F43 %30.02 in10.0 miNorth (360°)11.5 mphClear
1:35 PM52.7 °F30.6 °F43 %30.02 in10.0 miNorth (350°)10.4 mph16.1 mphClear
1:55 PM53.2 °F30.9 °F43 %30.01 in10.0 miNorth (360°)11.5 mphClear
2:15 PM53.6 °F29.8 °F40 %30.01 in10.0 miNorth (360°)10.4 mphClear
2:35 PM53.8 °F30.6 °F41 %30.01 in10.0 miNorth (10°)9.2 mphClear
2:55 PM53.8 °F30.0 °F40 %30.01 in10.0 miNorth (10°)8.1 mphClear
3:15 PM54.0 °F29.5 °F39 %30.01 in10.0 miNorth (360°)8.1 mphClear
3:35 PM53.8 °F29.7 °F40 %30.01 in10.0 miNorth (360°)8.1 mphClear
3:55 PM53.6 °F28.4 °F38 %30.01 in10.0 miNorth (360°)8.1 mphClear
4:15 PM53.2 °F28.4 °F38 %30.01 in10.0 miNNE (20°)4.6 mphClear
4:35 PM52.7 °F28.0 °F39 %30.01 in10.0 miNorth (10°)6.9 mphClear
4:55 PM51.8 °F27.9 °F40 %30.01 in10.0 miNorth (360°)4.6 mphClear
5:15 PM48.9 °F29.1 °F46 %30.01 in10.0 miNorth (360°)3.5 mphClear
5:35 PM48.4 °F28.4 °F46 %30.01 in10.0 miNNE (30°)3.5 mphClear
5:55 PM47.1 °F28.2 °F48 %30.01 in10.0 miNE (50°)3.5 mphClear
6:15 PM41.5 °F28.8 °F60 %30.01 in10.0 miSSE (160°)3.5 mphClear
6:35 PM41.0 °F28.4 °F61 %30.01 in10.0 miCalmClear
6:55 PM36.3 °F27.9 °F71 %30.02 in10.0 miCalmClear
7:15 PM38.5 °F28.4 °F67 %30.02 in10.0 miSSE (160°)3.5 mphClear
7:55 PM36.0 °F28.4 °F74 %30.03 in10.0 miCalmClear
8:35 PM34.5 °F27.9 °F77 %30.04 in10.0 miCalmClear
8:55 PM36.0 °F27.9 °F72 %30.05 in10.0 miCalmClear
9:15 PM32.7 °F27.1 °F80 %30.05 in10.0 miCalmClear
9:35 PM32.4 °F27.3 °F82 %30.05 in10.0 miCalmClear
9:55 PM32.0 °F27.3 °F83 %30.05 in10.0 miCalmClear
10:15 PM32.0 °F27.1 °F82 %30.05 in10.0 miSouth (180°)5.8 mphClear
10:35 PM33.6 °F27.9 °F79 %30.05 in10.0 miCalmClear
10:55 PM32.9 °F27.1 °F79 %30.04 in10.0 miCalmClear
11:15 PM33.3 °F27.5 °F79 %30.03 in10.0 miCalmScattered Clouds
11:35 PM34.9 °F28.2 °F77 %30.04 in10.0 miCalmScattered Clouds
11:55 PM37.0 °F29.3 °F74 %30.03 in10.0 miSSE (160°)6.9 mphScattered Clouds
Hourly data recorded from KHJH, located miles away from Endicott, Nebraska







STORIES FROM OUR PARTNERS